Hourly Data Report for June 04, 2021

WESTERN HEAD
NOVA SCOTIA
Current Station Operator: ECCC - MSC

43°59'24.070" N
64°39'51.008" W
10.10 m
8206240
71411
WWE

Download Data

Hourly Data (June 2021)
Hourly Data Report for June 4, 2021
TIME
LST
Temp Definition
°C
Dew Point Definition
°C
Rel Hum Definition
%
Precip. Amount Definition
mm

Wind Dir Definition
10's deg

Wind Spd Definition
km/h
Visibility Definition
km
Stn Press Definition
kPa
Hmdx Definition


Wind Chill Definition


Weather Definition


00:00 10.6 LegendMM LegendMM 1.6 20 25   101.32     LegendNANA
01:00 10.1 LegendMM LegendMM 0.5 19 26   101.23     LegendNANA
02:00 9.9 LegendMM LegendMM 0.0 20 26   101.14     LegendNANA
03:00 9.8 LegendMM LegendMM 0.0 20 22   101.07     LegendNANA
04:00 9.5 LegendMM LegendMM 0.2 20 19   101.05     LegendNANA
05:00 9.4 LegendMM LegendMM 0.0 24 9   101.02     LegendNANA
06:00 10.1 LegendMM LegendMM 0.0 22 13   101.03     LegendNANA
07:00 10.1 LegendMM LegendMM 0.0 22 14   101.04     LegendNANA
08:00 9.8 LegendMM LegendMM 0.0 22 12   101.06     LegendNANA
09:00 10.6 LegendMM LegendMM 0.0 21 6   101.06     LegendNANA
10:00 10.2 LegendMM LegendMM 0.0 22 8   101.04     LegendNANA
11:00 10.0 LegendMM LegendMM 0.8 22 15   101.01     LegendNANA
12:00 10.2 10.2 100 0.0 20 23   100.99     LegendNANA
13:00 10.1 10.1 100 0.0 20 18   100.93     LegendNANA
14:00 10.1 10.1 100 0.0 21 16   100.94     LegendNANA
15:00 10.4 LegendMM LegendMM 0.0 20 18   100.93     LegendNANA
16:00 10.3 LegendMM LegendMM 0.0 21 15   100.93     LegendNANA
17:00 9.6 LegendMM LegendMM 0.0 20 19   100.93     LegendNANA
18:00 9.2 LegendMM LegendMM 0.0 20 21   100.95     LegendNANA
19:00 9.0 LegendMM LegendMM 0.0 21 17   100.97     LegendNANA
20:00 9.2 LegendMM LegendMM 0.0 20 21   100.96     LegendNANA
21:00 9.1 LegendMM LegendMM 0.0 21 14   100.99     LegendNANA
22:00 10.4 LegendMM LegendMM 0.0 22 14   100.99     LegendNANA
23:00 8.8 LegendMM LegendMM 0.0 20 15   100.97     LegendNANA

Notes on Data Quality.

Legend

  • E = Estimated
  • M = Missing
  • NA = Not Available*
  • [empty] = Indicates an unobserved value
Date modified: